[[{"header":{"parameterUnit":"m.s-1","parameterCategory":1,"la1":30.2991,"la2":30.254,"lo1":-89.0895,"lo2":-89.0444,"dy":0.0017,"dx":0.0017,"nx":28,"ny":28,"refTime":"2024-05-14T21:00:00:Z","depth":0,"parameterNumber":2,"parameterNumberName":"U-component_of_WINDS"},"data":[0,0,0,0,0,0,0,0,0,0,0,0,0,0,0,0,0,0,0,0,0,0,0,0,0,0,0,0,0,0,0,0,0,0,0,0,0,0,0,0,0,0,0,0,0,0,0,0,0,0,0,0,0,0,0,0,0,0,-1.2208,-1.2207,0,-1.2075,-1.2073,-1.2072,-1.2012,-1.2012,-1.2012,-1.2012,-1.1872,-1.1868,-1.1865,0,0,0,0,0,0,0,0,0,0,0,0,0,-1.2409,-1.2405,-1.2209,-1.2207,-1.2205,-1.2075,-1.2073,-1.2072,-1.2012,-1.2012,-1.2012,-1.2012,-1.1873,-1.1869,-1.1864,0,0,0,0,0,0,0,0,0,0,0,0,0,-1.2303,-1.2404,-1.2209,-1.216,-1.2154,-1.2076,-1.2073,-1.2071,-1.2012,-1.2012,-1.2012,-1.2012,-1.1875,-1.1869,-1.1864,-1.1823,0,0,-1.1846,-1.1843,0,0,0,0,0,0,0,0,-1.2309,-1.2296,-1.2169,-1.2163,-1.2156,-1.206,-1.2092,-1.1988,-1.2012,-1.2066,-1.2012,-1.2012,-1.1934,-1.1924,-1.1898,-1.1816,-1.181,-1.1845,-1.1842,-1.1839,-1.1838,0,0,0,0,0,0,0,-1.2317,-1.2301,-1.2155,-1.2167,-1.2159,-1.2143,-1.2129,-1.2072,-1.2,-1.2061,-1.2056,-1.2041,-1.1931,-1.1904,-1.1894,-1.1808,-1.1845,-1.184,-1.1837,-1.1834,-1.1687,-1.1686,0,0,0,0,0,0,-1.2332,-1.2308,-1.216,-1.2152,-1.2235,-1.214,-1.2123,-1.2091,-1.2001,-1.1987,-1.2041,-1.2039,-1.1914,-1.1901,-1.1889,-1.1835,-1.1839,-1.1834,-1.183,-1.1687,-1.1686,-1.1686,0,0,0,0,0,0,-1.2337,-1.232,-1.2165,-1.2228,-1.2207,-1.2136,-1.21,-1.2088,-1.2061,-1.1986,-1.1972,-1.2027,-1.1913,-1.1897,-1.184,-1.183,-1.1831,-1.1826,-1.1687,-1.1687,-1.1686,-1.1728,0,0,0,0,0,0,-1.2343,-1.2322,-1.2306,-1.2228,-1.2204,-1.2119,-1.21,-1.2085,-1.2051,-1.2047,-1.1969,-1.1956,-1.1912,-1.1849,-1.1834,-1.1822,-1.1821,-1.1688,-1.1687,-1.1686,-1.1727,-1.1729,-1.173,0,0,0,0,0,-1.235,-1.2322,-1.2306,-1.2288,-1.2183,-1.2119,-1.2105,-1.2056,-1.2051,-1.2034,-1.1986,-1.1958,-1.1834,-1.1844,-1.1827,-1.1812,-1.1688,-1.1687,-1.1686,-1.1726,-1.1728,-1.173,0,0,0,0,0,0,-1.2399,-1.2311,-1.2292,-1.2238,-1.2187,-1.2109,-1.2086,-1.206,-1.2008,-1.2006,-1.1946,-1.1929,-1.1877,-1.1839,-1.1852,-1.1768,-1.1758,-1.1754,-1.1795,-1.1796,-1.1798,-1.1807,-1.1817,0,0,0,0,0,-1.2404,-1.236,-1.2285,-1.2245,-1.222,-1.2158,-1.2128,-1.2095,-1.2039,-1.2016,-1.1964,-1.1909,-1.1858,-1.1825,-1.1773,-1.1722,-1.1703,-1.1703,-1.1705,-1.1707,-1.1703,-1.1673,-1.1672,-1.1683,-1.1683,-1.1683,0,0,-1.2413,-1.2359,-1.2335,-1.2253,-1.2209,-1.2164,-1.214,-1.2093,-1.2058,-1.2008,-1.1951,-1.1912,-1.1847,-1.1792,-1.1766,-1.1759,-1.1696,-1.1705,-1.1707,-1.1702,-1.1672,-1.1671,-1.167,-1.1682,-1.1682,-1.1682,0,0,-1.2406,-1.2361,-1.2323,-1.228,-1.2215,-1.2174,-1.2165,-1.2091,-1.2063,-1.2005,-1.1967,-1.1925,-1.1837,-1.1793,-1.1759,-1.1736,-1.1709,-1.1721,-1.1729,-1.17,-1.1699,-1.1698,-1.1689,-1.1687,-1.1718,-1.1718,-1.1718,0,-1.2425,-1.2356,-1.2306,-1.2262,-1.2227,-1.2181,-1.2142,-1.2102,-1.2023,-1.1999,-1.1993,-1.1883,-1.1836,-1.1771,-1.1765,-1.174,-1.1727,-1.1729,-1.1703,-1.1702,-1.17,-1.1691,-1.1688,-1.172,-1.172,-1.172,-1.172,0,-1.2382,-1.2335,-1.2312,-1.2238,-1.22,-1.2159,-1.2102,-1.207,-1.2041,-1.2,-1.1942,-1.1884,-1.1821,-1.1803,-1.1773,-1.1733,-1.1731,-1.1715,-1.1704,-1.1702,-1.1692,-1.1689,-1.1723,-1.1722,-1.1722,-1.1721,0,0,-1.2401,-1.2301,-1.2293,-1.2259,-1.2184,-1.2146,-1.2102,-1.2041,-1.2015,-1.1962,-1.1923,-1.1851,-1.1836,-1.1797,-1.1762,-1.1737,-1.1723,-1.1724,-1.1722,-1.1725,-1.1675,-1.1687,-1.1683,-1.1705,-1.1704,-1.1703,-1.168,0,-1.2383,-1.2303,-1.2258,-1.2196,-1.2152,-1.2109,-1.207,-1.202,-1.1981,-1.1937,-1.1894,-1.1843,-1.1828,-1.1804,-1.1778,-1.173,-1.1712,-1.1732,-1.1667,-1.1665,-1.1684,-1.1679,-1.1691,-1.1671,-1.1676,-1.1675,-1.1675,0,-1.2351,-1.23,-1.2235,-1.2165,-1.2145,-1.2111,-1.2052,-1.2011,-1.1953,-1.1926,-1.1884,-1.185,-1.1801,-1.1795,-1.1727,-1.1742,-1.1713,-1.1686,-1.1684,-1.1674,-1.1669,-1.1669,-1.1664,-1.1661,-1.1669,-1.1669,-1.167,0,-1.237,-1.2286,-1.2235,-1.2208,-1.2126,-1.2103,-1.2068,-1.201,-1.1976,-1.1924,-1.1902,-1.1844,-1.1812,-1.1769,-1.1719,-1.172,-1.1656,-1.1646,-1.1632,-1.1633,-1.1619,-1.162,-1.1608,-1.1602,-1.1602,-1.1602,-1.1602,0,-1.2354,-1.2316,-1.2243,-1.2212,-1.2168,-1.2116,-1.2073,-1.2034,-1.1983,-1.1943,-1.1903,-1.1866,-1.1804,-1.1759,-1.1721,-1.167,-1.1656,-1.1632,-1.1622,-1.1635,-1.1638,-1.1615,-1.1614,-1.1602,-1.1602,-1.1602,-1.1602,0,-1.2368,-1.2318,-1.226,-1.2188,-1.2169,-1.2139,-1.2077,-1.2045,-1.2005,-1.1955,-1.194,-1.1877,-1.1822,-1.177,-1.1696,-1.167,-1.1619,-1.1606,-1.1639,-1.1633,-1.1622,-1.1624,-1.1593,-1.1587,-1.1587,-1.1587,-1.1587,0,-1.236,-1.233,-1.2255,-1.2226,-1.2192,-1.2145,-1.2111,-1.2059,-1.2025,-1.1957,-1.1934,-1.1877,-1.1828,-1.1743,-1.169,-1.1634,-1.1618,-1.1612,-1.1609,-1.1624,-1.1617,-1.1619,-1.1616,-1.1613,-1.1613,-1.1613,-1.1614,0,-1.2352,-1.2329,-1.2282,-1.2227,-1.2187,-1.2141,-1.2093,-1.2071,-1.201,-1.1973,-1.1918,-1.1881,-1.1807,-1.175,-1.1688,-1.1651,-1.1621,-1.1615,-1.1609,-1.1621,-1.1641,-1.1629,-1.1642,-1.1616,-1.1615,-1.1615,-1.1615,-1.1615,-1.2354,-1.2325,-1.2268,-1.2217,-1.2176,-1.2132,-1.2099,-1.2055,-1.2008,-1.1945,-1.1917,-1.1861,-1.1804,-1.1718,-1.1681,-1.1636,-1.1628,-1.1619,-1.1617,-1.1615,-1.1618,-1.165,-1.1624,-1.1624,-1.1624,-1.1624,-1.1624,0,-1.2343,-1.2305,-1.2258,-1.2193,-1.2153,-1.2131,-1.2077,-1.2044,-1.1996,-1.1946,-1.19,-1.1836,-1.1781,-1.1725,-1.1667,-1.1642,-1.1627,-1.1628,-1.1629,-1.162,-1.1628,-1.1639,-1.1641,-1.1641,-1.1641,-1.1641,-1.1641,-1.1641,-1.2333,-1.2282,-1.2253,-1.2182,-1.2143,-1.2089,-1.206,-1.2019,-1.1979,-1.191,-1.1865,-1.1829,-1.1776,-1.1714,-1.1663,-1.1648,-1.1628,-1.1633,-1.1614,-1.1621,-1.162,-1.1619,-1.1629,-1.1629,-1.1629,-1.161,-1.161,-1.161]},{"header":{"parameterUnit":"m.s-1","parameterCategory":1,"la1":30.2991,"la2":30.254,"lo1":-89.0895,"lo2":-89.0444,"dy":0.0017,"dx":0.0017,"nx":28,"ny":28,"refTime":"2024-05-14T21:00:00:Z","depth":0,"parameterNumber":3,"parameterNumberName":"V-component_of_WINDS"},"data":[0,0,0,0,0,0,0,0,0,0,0,0,0,0,0,0,0,0,0,0,0,0,0,0,0,0,0,0,0,0,0,0,0,0,0,0,0,0,0,0,0,0,0,0,0,0,0,0,0,0,0,0,0,0,0,0,0,0,1.9269,1.9269,0,1.9204,1.9204,1.9203,1.9229,1.9231,1.9232,1.9234,1.9164,1.916,1.9157,0,0,0,0,0,0,0,0,0,0,0,0,0,1.9413,1.941,1.9269,1.9269,1.9268,1.9204,1.9204,1.9203,1.9229,1.9231,1.9233,1.9235,1.9165,1.9161,1.9157,0,0,0,0,0,0,0,0,0,0,0,0,0,1.935,1.9409,1.9269,1.9273,1.9273,1.9205,1.9203,1.9202,1.9229,1.9231,1.9233,1.9236,1.9166,1.9161,1.9156,1.9079,0,0,1.9141,1.9139,0,0,0,0,0,0,0,0,1.9353,1.9344,1.9274,1.9273,1.9273,1.9227,1.9228,1.9161,1.9228,1.9245,1.9234,1.9237,1.9183,1.9176,1.9159,1.9075,1.9072,1.914,1.9137,1.9135,1.9134,0,0,0,0,0,0,0,1.9357,1.9347,1.9244,1.9273,1.9272,1.9277,1.9271,1.9216,1.9202,1.9244,1.9246,1.9238,1.9183,1.9164,1.9158,1.9071,1.9141,1.9136,1.9133,1.9131,1.8921,1.8918,0,0,0,0,0,0,1.9362,1.9351,1.9246,1.9242,1.932,1.9273,1.9266,1.9239,1.9202,1.9199,1.9236,1.924,1.9171,1.9163,1.9155,1.9062,1.9135,1.9131,1.9128,1.8923,1.892,1.8917,0,0,0,0,0,0,1.9365,1.9353,1.9248,1.9297,1.9284,1.9268,1.9238,1.9237,1.9218,1.9196,1.9194,1.9219,1.9173,1.9162,1.9098,1.906,1.9128,1.9124,1.8926,1.8922,1.8919,1.8874,0,0,0,0,0,0,1.9369,1.9354,1.9325,1.9296,1.9281,1.9193,1.9236,1.9234,1.921,1.9214,1.918,1.9177,1.9174,1.9105,1.9093,1.9054,1.912,1.893,1.8925,1.892,1.8879,1.8869,1.8861,0,0,0,0,0,1.9375,1.9314,1.9323,1.931,1.9245,1.919,1.9182,1.9181,1.9207,1.9177,1.9163,1.9178,1.9066,1.9098,1.9085,1.9044,1.8932,1.8926,1.892,1.8883,1.8871,1.8861,0,0,0,0,0,0,1.9338,1.931,1.932,1.9249,1.9222,1.9195,1.9158,1.9168,1.9132,1.9137,1.9137,1.9129,1.9062,1.9047,1.9083,1.8967,1.9003,1.8994,1.8979,1.8968,1.8959,1.8963,1.9116,0,0,0,0,0,1.9322,1.9281,1.9259,1.9198,1.9184,1.9173,1.9149,1.9151,1.9123,1.9111,1.9092,1.9063,1.9022,1.8994,1.8954,1.8878,1.887,1.8843,1.8834,1.8826,1.8818,1.8776,1.8763,1.8898,1.8898,1.8898,0,0,1.9287,1.9267,1.9242,1.919,1.917,1.9126,1.9163,1.9116,1.9084,1.9103,1.9042,1.9027,1.8994,1.8923,1.8891,1.8908,1.878,1.8819,1.8813,1.8809,1.8769,1.8756,1.8745,1.8894,1.8895,1.8896,0,0,1.9203,1.9184,1.9131,1.911,1.9079,1.9072,1.9059,1.9031,1.9022,1.8961,1.8975,1.8936,1.8864,1.884,1.8819,1.8726,1.8737,1.8713,1.8665,1.8624,1.8613,1.8604,1.857,1.8558,1.8705,1.8705,1.8705,0,1.9163,1.91,1.9102,1.9054,1.9031,1.9048,1.8994,1.8973,1.893,1.8913,1.8933,1.8844,1.8823,1.8747,1.8724,1.8706,1.8691,1.8716,1.8615,1.8605,1.8597,1.8564,1.8551,1.8702,1.8702,1.8703,1.8703,0,1.9053,1.9009,1.897,1.8929,1.8902,1.8851,1.8844,1.8815,1.882,1.8811,1.8747,1.8723,1.8679,1.8661,1.8664,1.8585,1.8596,1.8616,1.8652,1.8581,1.855,1.8538,1.8698,1.8699,1.87,1.8701,0,0,1.8942,1.8905,1.889,1.8872,1.8839,1.8804,1.8754,1.8712,1.8687,1.8657,1.8614,1.8553,1.8571,1.8547,1.8547,1.8511,1.8438,1.8535,1.8534,1.8517,1.8348,1.8333,1.8319,1.8447,1.8444,1.8442,1.8351,0,1.8855,1.8768,1.8768,1.8687,1.8646,1.8662,1.8618,1.8592,1.8583,1.8545,1.8534,1.8491,1.8518,1.8504,1.8469,1.8455,1.8404,1.8462,1.8405,1.8403,1.8412,1.8303,1.8287,1.8202,1.8339,1.8337,1.8336,0,1.874,1.8708,1.8623,1.8596,1.8579,1.8539,1.8501,1.8466,1.8437,1.8432,1.8405,1.8412,1.8359,1.8398,1.8325,1.8364,1.8341,1.8331,1.8327,1.8321,1.8364,1.8293,1.8175,1.8162,1.8317,1.8318,1.832,0,1.8667,1.8602,1.8543,1.8527,1.8494,1.8466,1.8451,1.8425,1.84,1.8366,1.8349,1.831,1.8287,1.8256,1.8251,1.828,1.8178,1.8216,1.8171,1.8171,1.8148,1.8149,1.8023,1.8135,1.8135,1.8135,1.8135,0,1.8569,1.8516,1.851,1.8473,1.8414,1.8415,1.8356,1.8344,1.832,1.828,1.8292,1.8254,1.8251,1.8212,1.8208,1.8148,1.8138,1.8131,1.8131,1.813,1.813,1.8114,1.8119,1.8132,1.8133,1.8133,1.8134,0,1.8476,1.847,1.8407,1.8382,1.8374,1.8332,1.831,1.8274,1.8266,1.8216,1.8204,1.8191,1.8145,1.8138,1.8084,1.8081,1.8009,1.8015,1.8019,1.802,1.7975,1.7979,1.7833,1.7814,1.7939,1.7938,1.7937,0,1.8413,1.8373,1.8344,1.8319,1.8303,1.8263,1.8238,1.8237,1.821,1.8174,1.8143,1.8099,1.8064,1.7991,1.7975,1.7934,1.7938,1.789,1.7932,1.7933,1.7937,1.7939,1.7934,1.7882,1.788,1.7879,1.7878,0,1.8302,1.8301,1.8265,1.8228,1.8198,1.8168,1.814,1.8118,1.8114,1.8083,1.8037,1.801,1.7956,1.7912,1.7871,1.7855,1.7865,1.7866,1.7853,1.7851,1.7855,1.7851,1.7996,1.7869,1.7869,1.787,1.7871,1.7871,1.8222,1.8187,1.8161,1.8121,1.81,1.8073,1.8039,1.8027,1.7989,1.7946,1.7948,1.7897,1.7869,1.7816,1.7797,1.7757,1.7772,1.7754,1.7749,1.7745,1.774,1.7862,1.775,1.775,1.775,1.775,1.7751,0,1.811,1.8095,1.8058,1.8019,1.7986,1.8001,1.7971,1.7942,1.7898,1.7872,1.7838,1.7785,1.7742,1.7724,1.7682,1.7654,1.7657,1.7643,1.7644,1.764,1.7729,1.7744,1.764,1.764,1.764,1.764,1.764,1.764,1.8049,1.799,1.7986,1.7918,1.7902,1.7854,1.7836,1.7811,1.779,1.7731,1.7696,1.7685,1.7662,1.7618,1.758,1.7575,1.7559,1.7542,1.7539,1.7623,1.7634,1.7644,1.7658,1.7538,1.7538,1.7454,1.7453,1.7452]}]]